User: anonymous   Login
Location: Lussas
(44.6119°N, 4.4726°E)
Time: 07:52:12
(UTC+00:00)
Language:

Cosmos 1862 - Orbit

View from above orbital plane
View from above orbital plane
View from above satellite
View from above satellite

Ground track
Ground track

The orbit data is extracted from the following two-line orbital elements,

1 18152U 87055A   21057.75325598  .00001093  00000-0  71890-4 0  9993
2 18152  82.4946  60.0028 0012155 284.9585  75.0297 15.06553080811804
Epoch (UTC): 26 February 2021 18:04:41
Eccentricity: 0.0012155
inclination: 82.4946°
perigee height: 538 km
apogee height: 555 km
right ascension of ascending node: 60.0028°
argument of perigee: 284.9585°
revolutions per day: 15.06553080
mean anomaly at epoch: 75.0297°
orbit number at epoch: 81180

The dashed part of the orbit path shows where the satellite is in the earth's shadow,  

DLR